Hourly Data Report for September 28, 2019

All times are specified in Local Standard Time (LST). Add 1 hour to adjust for Daylight Saving Time where and when it is observed.

EUREKA CLIMATE
NUNAVUT
Current Station Operator: ECCC - MSC

79°59'21.000" N
85°56'02.000" W
10.00 m
2401199
71613
NEK

Download Data

Hourly Data (September 2019)
Hourly Data Report for September 28, 2019
TIME Temp Definition
°C
Dew Point Definition
°C
Rel Hum Definition
%
Wind Dir Definition
10's deg

Wind Spd Definition
km/h
Visibility Definition
km
Stn Press Definition
kPa
Hmdx Definition


Wind Chill Definition


Weather Definition


00:00 -0.1 -0.3 99 30 9   100.86   -3 LegendNANA
01:00 0.1 -0.2 98 31 5   100.86     LegendNANA
02:00 -0.6 -1.2 96 29 10   100.86   -4 LegendNANA
03:00 -1.2 -1.7 97 29 9   100.87   -4 LegendNANA
04:00 -0.9 -1.8 94 30 8   100.91   -4 LegendNANA
05:00 -1.1 -1.7 96 30 6   100.93   -3 LegendNANA
06:00 -1.3 -1.9 96 30 9   100.96   -5 LegendNANA
07:00 -1.2 -1.9 95 30 9   101.00   -4 LegendNANA
08:00 -1.0 -1.5 96 31 8   100.97   -4 LegendNANA
09:00 -0.6 -1.3 95 32 7   100.99   -3 LegendNANA
10:00 1.0 -1.7 82 3 7   101.00     LegendNANA
11:00 0.4 -0.5 93 33 6   101.01     LegendNANA
12:00 1.8 -0.4 85 2 7   101.01     LegendNANA
13:00 1.6 -0.3 87 5 2   101.02     LegendNANA
14:00 2.1 0.2 88 33 3   101.03     LegendNANA
15:00 2.3 0.8 90 1 3   101.03     LegendNANA
16:00 1.4 0.5 94 1 7   101.02     LegendNANA
17:00 1.8 0.9 94   0   101.01     LegendNANA
18:00 1.8 1.0 95 3 3   101.00     LegendNANA
19:00 1.0 0.5 96 8 1   101.01     LegendNANA
20:00 1.1 0.8 98 6 1   101.00     LegendNANA
21:00 0.5 0.0 97 31 5   101.01     LegendNANA
22:00 0.6 0.4 99 11 4   101.00     LegendNANA
23:00 1.4 1.0 97 7 6   101.03     LegendNANA

Notes on Data Quality.

Legend

  • E = Estimated
  • M = Missing
  • NA = Not Available
Date modified: